Time,TemperatureF,DewpointF,PressureIn,WindDirection,WindDirectionDegrees,WindSpeedMPH,WindSpeedGustMPH,Humidity,HourlyPrecipIn,Conditions,Clouds,dailyrainin,SoftwareType,DateUTC
2013-01-25 00:03:00,12.0,9.0,-100.00,East,90,0.0,2.0,89,-99.99,,,-99.99,,2013-01-25 05:03:00,
2013-01-25 00:12:00,12.0,10.0,-100.00,SE,135,0.0,4.0,89,-99.99,,,-99.99,,2013-01-25 05:12:00,
2013-01-25 00:22:00,12.0,10.0,-100.00,South,170,0.0,3.0,89,-99.99,,,-99.99,,2013-01-25 05:22:00,
2013-01-25 00:32:00,12.0,10.0,-100.00,SE,135,0.0,2.0,89,-99.99,,,-99.99,,2013-01-25 05:32:00,
2013-01-25 00:43:00,12.0,10.0,-100.00,ENE,65,0.0,2.0,89,-99.99,,,-99.99,,2013-01-25 05:43:00,
2013-01-25 00:52:00,12.0,10.0,-100.00,ESE,115,1.0,2.0,89,-99.99,,,-99.99,,2013-01-25 05:52:00,
2013-01-25 01:02:00,12.0,10.0,-100.00,West,260,0.0,3.0,89,-99.99,,,-99.99,,2013-01-25 06:02:00,
2013-01-25 01:11:00,12.0,10.0,-100.00,NE,35,1.0,2.0,89,-99.99,,,-99.99,,2013-01-25 06:11:00,
2013-01-25 01:21:00,12.0,10.0,-100.00,East,80,1.0,2.0,89,-99.99,,,-99.99,,2013-01-25 06:21:00,
2013-01-25 01:32:00,12.0,10.0,-100.00,NE,55,0.0,2.0,89,-99.99,,,-99.99,,2013-01-25 06:32:00,
2013-01-25 01:42:00,12.0,10.0,-100.00,SSW,195,0.0,2.0,90,-99.99,,,-99.99,,2013-01-25 06:42:00,
2013-01-25 01:52:00,13.0,10.0,-100.00,SSW,210,1.0,3.0,90,-99.99,,,-99.99,,2013-01-25 06:52:00,
2013-01-25 02:02:00,13.0,10.0,-100.00,SSW,210,0.0,1.0,90,-99.99,,,-99.99,,2013-01-25 07:02:00,
2013-01-25 02:11:00,13.0,10.0,-100.00,East,90,1.0,2.0,90,-99.99,,,-99.99,,2013-01-25 07:11:00,
2013-01-25 02:21:00,13.0,11.0,-100.00,ENE,65,1.0,1.0,90,-99.99,,,-99.99,,2013-01-25 07:21:00,
2013-01-25 02:32:00,13.0,11.0,-100.00,SSE,160,0.0,2.0,90,-99.99,,,-99.99,,2013-01-25 07:32:00,
2013-01-25 02:42:00,13.0,11.0,-100.00,SE,130,1.0,3.0,90,-99.99,,,-99.99,,2013-01-25 07:42:00,
2013-01-25 02:51:00,13.0,11.0,-100.00,South,175,1.0,3.0,91,-99.99,,,-99.99,,2013-01-25 07:51:00,
2013-01-25 03:02:00,13.0,11.0,-100.00,East,100,1.0,3.0,91,-99.99,,,-99.99,,2013-01-25 08:02:00,
2013-01-25 03:11:00,13.0,11.0,-100.00,SE,130,1.0,3.0,91,-99.99,,,-99.99,,2013-01-25 08:11:00,
2013-01-25 03:21:00,13.0,11.0,-100.00,SE,140,0.0,2.0,91,-99.99,,,-99.99,,2013-01-25 08:21:00,
2013-01-25 03:32:00,13.0,11.0,-100.00,SE,125,1.0,3.0,91,-99.99,,,-99.99,,2013-01-25 08:32:00,
2013-01-25 03:41:00,14.0,12.0,-100.00,SSE,165,1.0,2.0,91,-99.99,,,-99.99,,2013-01-25 08:41:00,
2013-01-25 03:52:00,14.0,12.0,-100.00,NNE,30,1.0,3.0,91,-99.99,,,-99.99,,2013-01-25 08:52:00,
2013-01-25 04:02:00,14.0,12.0,-100.00,ESE,120,0.0,2.0,91,-99.99,,,-99.99,,2013-01-25 09:02:00,
2013-01-25 04:11:00,14.0,12.0,-100.00,ENE,75,0.0,1.0,91,-99.99,,,-99.99,,2013-01-25 09:11:00,
2013-01-25 04:21:00,14.0,12.0,-100.00,NE,50,1.0,3.0,91,-99.99,,,-99.99,,2013-01-25 09:21:00,
2013-01-25 04:32:00,14.0,12.0,-100.00,East,85,1.0,3.0,91,-99.99,,,-99.99,,2013-01-25 09:32:00,
2013-01-25 04:42:00,14.0,12.0,-100.00,ESE,115,0.0,3.0,91,-99.99,,,-99.99,,2013-01-25 09:42:00,
2013-01-25 04:51:00,14.0,12.0,-100.00,ESE,115,0.0,3.0,91,-99.99,,,-99.99,,2013-01-25 09:51:00,
2013-01-25 05:02:00,14.0,12.0,-100.00,ESE,115,0.0,3.0,91,-99.99,,,-99.99,,2013-01-25 10:02:00,
2013-01-25 05:12:00,14.0,12.0,-100.00,ESE,105,1.0,2.0,91,-99.99,,,-99.99,,2013-01-25 10:12:00,
2013-01-25 05:21:00,15.0,13.0,-100.00,ESE,105,1.0,3.0,91,-99.99,,,-99.99,,2013-01-25 10:21:00,
2013-01-25 05:32:00,15.0,13.0,-100.00,SE,125,1.0,2.0,91,-99.99,,,-99.99,,2013-01-25 10:32:00,
2013-01-25 05:42:00,15.0,13.0,-100.00,ESE,120,0.0,2.0,91,-99.99,,,-99.99,,2013-01-25 10:42:00,
2013-01-25 05:51:00,15.0,13.0,-100.00,NNE,30,1.0,3.0,91,-99.99,,,-99.99,,2013-01-25 10:51:00,
2013-01-25 06:03:00,15.0,13.0,-100.00,NE,55,2.0,6.0,91,-99.99,,,-99.99,,2013-01-25 11:03:00,
2013-01-25 06:11:00,15.0,13.0,-100.00,ENE,75,1.0,4.0,91,-99.99,,,-99.99,,2013-01-25 11:11:00,
2013-01-25 06:22:00,15.0,13.0,-100.00,East,85,1.0,6.0,91,-99.99,,,-99.99,,2013-01-25 11:22:00,
2013-01-25 06:33:00,15.0,13.0,-100.00,NE,55,1.0,6.0,91,-99.99,,,-99.99,,2013-01-25 11:33:00,
2013-01-25 06:42:00,15.0,13.0,-100.00,East,100,1.0,4.0,91,-99.99,,,-99.99,,2013-01-25 11:42:00,
2013-01-25 06:52:00,16.0,13.0,-100.00,ENE,75,1.0,4.0,91,-99.99,,,-99.99,,2013-01-25 11:52:00,
2013-01-25 07:02:00,16.0,14.0,-100.00,East,95,1.0,4.0,91,-99.99,,,-99.99,,2013-01-25 12:02:00,
2013-01-25 07:12:00,16.0,14.0,-100.00,ESE,115,1.0,4.0,90,-99.99,,,-99.99,,2013-01-25 12:12:00,
2013-01-25 07:22:00,16.0,13.0,-100.00,SE,140,1.0,6.0,89,-99.99,,,-99.99,,2013-01-25 12:22:00,
2013-01-25 07:32:00,16.0,13.0,-100.00,SE,140,1.0,6.0,89,-99.99,,,-99.99,,2013-01-25 12:32:00,
2013-01-25 07:42:00,16.0,14.0,-100.00,East,80,1.0,6.0,89,-99.99,,,-99.99,,2013-01-25 12:42:00,
2013-01-25 07:53:00,16.0,13.0,-100.00,SE,125,2.0,6.0,88,-99.99,,,-99.99,,2013-01-25 12:53:00,
2013-01-25 08:03:00,16.0,13.0,-100.00,East,90,1.0,4.0,87,-99.99,,,-99.99,,2013-01-25 13:03:00,
2013-01-25 08:12:00,16.0,13.0,-100.00,SE,135,2.0,4.0,87,-99.99,,,-99.99,,2013-01-25 13:12:00,
2013-01-25 08:22:00,16.0,13.0,-100.00,ESE,110,1.0,6.0,87,-99.99,,,-99.99,,2013-01-25 13:22:00,
2013-01-25 08:33:00,16.0,13.0,-100.00,ESE,110,1.0,6.0,87,-99.99,,,-99.99,,2013-01-25 13:33:00,
2013-01-25 08:42:00,17.0,14.0,-100.00,South,175,1.0,6.0,87,-99.99,,,-99.99,,2013-01-25 13:42:00,
2013-01-25 08:52:00,17.0,14.0,-100.00,SE,140,1.0,6.0,87,-99.99,,,-99.99,,2013-01-25 13:52:00,
2013-01-25 09:03:00,17.0,14.0,-100.00,South,175,3.0,6.0,88,-99.99,,,-99.99,,2013-01-25 14:03:00,
2013-01-25 09:12:00,16.0,14.0,-100.00,SE,125,1.0,6.0,89,-99.99,,,-99.99,,2013-01-25 14:12:00,
2013-01-25 09:23:00,16.0,14.0,-100.00,ESE,110,1.0,4.0,90,-99.99,,,-99.99,,2013-01-25 14:23:00,
2013-01-25 09:33:00,16.0,14.0,-100.00,East,100,1.0,4.0,90,-99.99,,,-99.99,,2013-01-25 14:33:00,
2013-01-25 09:42:00,17.0,14.0,-100.00,SE,130,1.0,4.0,91,-99.99,,,-99.99,,2013-01-25 14:42:00,
2013-01-25 09:52:00,17.0,15.0,-100.00,ENE,70,1.0,6.0,91,-99.99,,,-99.99,,2013-01-25 14:52:00,
2013-01-25 10:03:00,17.0,15.0,-100.00,ESE,120,1.0,3.0,91,-99.99,,,-99.99,,2013-01-25 15:03:00,
2013-01-25 10:12:00,17.0,15.0,-100.00,East,90,2.0,6.0,91,-99.99,,,-99.99,,2013-01-25 15:12:00,
2013-01-25 10:22:00,17.0,15.0,-100.00,East,80,3.0,7.0,91,-99.99,,,-99.99,,2013-01-25 15:22:00,
2013-01-25 10:32:00,17.0,15.0,-100.00,SSE,150,1.0,4.0,92,-99.99,,,-99.99,,2013-01-25 15:32:00,
2013-01-25 10:42:00,17.0,15.0,-100.00,SE,125,1.0,4.0,92,-99.99,,,-99.99,,2013-01-25 15:42:00,
2013-01-25 10:52:00,17.0,15.0,-100.00,East,85,2.0,7.0,92,-99.99,,,-99.99,,2013-01-25 15:52:00,
2013-01-25 11:03:00,17.0,15.0,-100.00,East,85,2.0,6.0,92,-99.99,,,-99.99,,2013-01-25 16:03:00,
2013-01-25 11:12:00,17.0,15.0,-100.00,ESE,105,3.0,6.0,93,-99.99,,,-99.99,,2013-01-25 16:12:00,
2013-01-25 11:23:00,17.0,15.0,-100.00,ENE,75,3.0,8.0,93,-99.99,,,-99.99,,2013-01-25 16:23:00,
2013-01-25 11:33:00,17.0,16.0,-100.00,ESE,120,2.0,7.0,93,-99.99,,,-99.99,,2013-01-25 16:33:00,
2013-01-25 11:43:00,17.0,16.0,-100.00,NE,45,1.0,6.0,93,-99.99,,,-99.99,,2013-01-25 16:43:00,
2013-01-25 11:52:00,17.0,16.0,-100.00,ESE,105,2.0,7.0,93,-99.99,,,-99.99,,2013-01-25 16:52:00,
2013-01-25 12:03:00,18.0,16.0,-100.00,SSE,155,2.0,6.0,93,-99.99,,,-99.99,,2013-01-25 17:03:00,
2013-01-25 12:12:00,18.0,16.0,-100.00,ENE,70,2.0,7.0,93,-99.99,,,-99.99,,2013-01-25 17:12:00,
2013-01-25 12:22:00,18.0,16.0,-100.00,East,80,1.0,6.0,93,-99.99,,,-99.99,,2013-01-25 17:22:00,
2013-01-25 12:33:00,18.0,17.0,-100.00,SE,125,1.0,6.0,93,-99.99,,,-99.99,,2013-01-25 17:33:00,
2013-01-25 12:43:00,18.0,17.0,-100.00,SSE,150,1.0,6.0,94,-99.99,,,-99.99,,2013-01-25 17:43:00,
2013-01-25 12:52:00,19.0,17.0,-100.00,NE,45,1.0,4.0,94,-99.99,,,-99.99,,2013-01-25 17:52:00,
2013-01-25 13:03:00,19.0,17.0,-100.00,SSE,165,1.0,5.0,94,-99.99,,,-99.99,,2013-01-25 18:03:00,
2013-01-25 13:12:00,19.0,17.0,-100.00,ESE,115,1.0,6.0,94,-99.99,,,-99.99,,2013-01-25 18:12:00,
2013-01-25 13:23:00,19.0,17.0,-100.00,SSE,165,2.0,6.0,94,-99.99,,,-99.99,,2013-01-25 18:23:00,
2013-01-25 13:33:00,19.0,17.0,-100.00,SSE,155,1.0,6.0,94,-99.99,,,-99.99,,2013-01-25 18:33:00,
2013-01-25 13:42:00,19.0,18.0,-100.00,East,95,3.0,7.0,94,-99.99,,,-99.99,,2013-01-25 18:42:00,
2013-01-25 13:52:00,20.0,18.0,-100.00,NE,50,1.0,6.0,94,-99.99,,,-99.99,,2013-01-25 18:52:00,
2013-01-25 14:03:00,20.0,19.0,-100.00,South,180,1.0,5.0,94,-99.99,,,-99.99,,2013-01-25 19:03:00,
2013-01-25 14:12:00,20.0,19.0,-100.00,ESE,105,2.0,6.0,94,-99.99,,,-99.99,,2013-01-25 19:12:00,
2013-01-25 14:22:00,20.0,19.0,-100.00,SSE,155,1.0,4.0,94,-99.99,,,-99.99,,2013-01-25 19:22:00,
2013-01-25 14:33:00,21.0,20.0,-100.00,South,190,2.0,6.0,94,-99.99,,,-99.99,,2013-01-25 19:33:00,
2013-01-25 14:42:00,21.0,20.0,-100.00,East,80,1.0,4.0,94,-99.99,,,-99.99,,2013-01-25 19:42:00,
2013-01-25 14:52:00,21.0,20.0,-100.00,South,175,2.0,6.0,94,-99.99,,,-99.99,,2013-01-25 19:52:00,
2013-01-25 15:03:00,21.0,20.0,-100.00,South,170,2.0,5.0,94,-99.99,,,-99.99,,2013-01-25 20:03:00,
2013-01-25 15:12:00,21.0,20.0,-100.00,South,185,1.0,5.0,94,-99.99,,,-99.99,,2013-01-25 20:12:00,
2013-01-25 15:22:00,21.0,19.0,-100.00,NE,55,1.0,5.0,94,-99.99,,,-99.99,,2013-01-25 20:22:00,
2013-01-25 15:32:00,21.0,19.0,-100.00,South,170,2.0,7.0,94,-99.99,,,-99.99,,2013-01-25 20:32:00,
2013-01-25 15:42:00,20.0,19.0,-100.00,SSW,195,4.0,6.0,94,-99.99,,,-99.99,,2013-01-25 20:42:00,
2013-01-25 15:52:00,21.0,19.0,-100.00,ESE,105,1.0,6.0,94,-99.99,,,-99.99,,2013-01-25 20:52:00,
2013-01-25 16:02:00,21.0,20.0,-100.00,South,185,2.0,4.0,94,-99.99,,,-99.99,,2013-01-25 21:02:00,
2013-01-25 16:12:00,20.0,19.0,-100.00,East,85,1.0,4.0,94,-99.99,,,-99.99,,2013-01-25 21:12:00,
2013-01-25 16:23:00,20.0,19.0,-100.00,SSE,150,1.0,5.0,94,-99.99,,,-99.99,,2013-01-25 21:23:00,
2013-01-25 16:33:00,20.0,19.0,-100.00,ESE,105,1.0,4.0,94,-99.99,,,-99.99,,2013-01-25 21:33:00,
2013-01-25 16:42:00,20.0,19.0,-100.00,SE,135,1.0,4.0,94,-99.99,,,-99.99,,2013-01-25 21:42:00,
2013-01-25 16:52:00,20.0,19.0,-100.00,East,100,1.0,4.0,94,-99.99,,,-99.99,,2013-01-25 21:52:00,
2013-01-25 17:03:00,20.0,19.0,-100.00,South,185,2.0,5.0,94,-99.99,,,-99.99,,2013-01-25 22:03:00,
2013-01-25 17:12:00,20.0,19.0,-100.00,South,185,2.0,4.0,94,-99.99,,,-99.99,,2013-01-25 22:12:00,
2013-01-25 17:22:00,20.0,18.0,-100.00,ESE,115,1.0,4.0,94,-99.99,,,-99.99,,2013-01-25 22:22:00,
2013-01-25 17:33:00,20.0,18.0,-100.00,South,175,2.0,4.0,94,-99.99,,,-99.99,,2013-01-25 22:33:00,
2013-01-25 17:42:00,19.0,18.0,-100.00,SE,125,1.0,5.0,94,-99.99,,,-99.99,,2013-01-25 22:42:00,
2013-01-25 17:52:00,19.0,18.0,-100.00,South,180,1.0,3.0,94,-99.99,,,-99.99,,2013-01-25 22:52:00,
2013-01-25 18:02:00,19.0,18.0,-100.00,ESE,110,1.0,3.0,94,-99.99,,,-99.99,,2013-01-25 23:02:00,
2013-01-25 18:12:00,19.0,18.0,-100.00,SSE,160,1.0,4.0,94,-99.99,,,-99.99,,2013-01-25 23:12:00,
2013-01-25 18:22:00,19.0,18.0,-100.00,SSE,150,1.0,4.0,94,-99.99,,,-99.99,,2013-01-25 23:22:00,
2013-01-25 18:32:00,19.0,18.0,-100.00,SE,145,1.0,4.0,94,-99.99,,,-99.99,,2013-01-25 23:32:00,
2013-01-25 18:42:00,19.0,18.0,-100.00,ESE,110,1.0,3.0,94,-99.99,,,-99.99,,2013-01-25 23:42:00,
2013-01-25 18:52:00,19.0,18.0,-100.00,ENE,70,1.0,3.0,94,-99.99,,,-99.99,,2013-01-25 23:52:00,
2013-01-25 19:02:00,19.0,18.0,-100.00,SE,125,1.0,4.0,94,-99.99,,,-99.99,,2013-01-26 00:02:00,
2013-01-25 19:11:00,19.0,18.0,-100.00,SE,140,1.0,3.0,95,-99.99,,,-99.99,,2013-01-26 00:11:00,
2013-01-25 19:22:00,19.0,18.0,-100.00,SE,130,1.0,4.0,95,-99.99,,,-99.99,,2013-01-26 00:22:00,
2013-01-25 19:32:00,19.0,18.0,-100.00,ENE,65,1.0,3.0,95,-99.99,,,-99.99,,2013-01-26 00:32:00,
2013-01-25 19:42:00,19.0,18.0,-100.00,SSE,160,1.0,2.0,95,-99.99,,,-99.99,,2013-01-26 00:42:00,
2013-01-25 19:52:00,19.0,18.0,-100.00,SE,135,1.0,4.0,95,-99.99,,,-99.99,,2013-01-26 00:52:00,
2013-01-25 20:02:00,19.0,18.0,-100.00,ENE,70,1.0,3.0,95,-99.99,,,-99.99,,2013-01-26 01:02:00,
2013-01-25 20:11:00,19.0,18.0,-100.00,SE,125,1.0,3.0,95,-99.99,,,-99.99,,2013-01-26 01:11:00,
2013-01-25 20:22:00,19.0,18.0,-100.00,SE,125,1.0,2.0,95,-99.99,,,-99.99,,2013-01-26 01:22:00,
2013-01-25 20:32:00,19.0,18.0,-100.00,SSE,155,1.0,3.0,95,-99.99,,,-99.99,,2013-01-26 01:32:00,
2013-01-25 20:42:00,19.0,18.0,-100.00,ESE,105,1.0,4.0,95,-99.99,,,-99.99,,2013-01-26 01:42:00,
2013-01-25 20:52:00,19.0,18.0,-100.00,ESE,105,1.0,4.0,95,-99.99,,,-99.99,,2013-01-26 01:52:00,
2013-01-25 21:02:00,19.0,18.0,-100.00,SSE,150,1.0,2.0,95,-99.99,,,-99.99,,2013-01-26 02:02:00,
2013-01-25 21:11:00,19.0,18.0,-100.00,East,80,1.0,2.0,95,-99.99,,,-99.99,,2013-01-26 02:11:00,
2013-01-25 21:22:00,19.0,18.0,-100.00,SE,135,1.0,2.0,95,-99.99,,,-99.99,,2013-01-26 02:22:00,
2013-01-25 21:32:00,19.0,18.0,-100.00,SE,135,0.0,2.0,95,-99.99,,,-99.99,,2013-01-26 02:32:00,
2013-01-25 21:42:00,19.0,18.0,-100.00,SE,135,0.0,2.0,95,-99.99,,,-99.99,,2013-01-26 02:42:00,
2013-01-25 21:52:00,19.0,18.0,-100.00,South,185,0.0,2.0,96,-99.99,,,-99.99,,2013-01-26 02:52:00,
2013-01-25 22:02:00,19.0,18.0,-100.00,ESE,105,0.0,1.0,96,-99.99,,,-99.99,,2013-01-26 03:02:00,
2013-01-25 22:11:00,19.0,18.0,-100.00,ESE,105,0.0,1.0,96,-99.99,,,-99.99,,2013-01-26 03:11:00,
2013-01-25 22:22:00,19.0,18.0,-100.00,SE,125,0.0,1.0,96,-99.99,,,-99.99,,2013-01-26 03:22:00,
2013-01-25 22:32:00,19.0,18.0,-100.00,East,100,0.0,1.0,96,-99.99,,,-99.99,,2013-01-26 03:32:00,
2013-01-25 22:43:00,19.0,18.0,-100.00,ESE,115,0.0,1.0,96,-99.99,,,-99.99,,2013-01-26 03:43:00,
2013-01-25 22:52:00,19.0,18.0,-100.00,East,90,1.0,1.0,96,-99.99,,,-99.99,,2013-01-26 03:52:00,
2013-01-25 23:02:00,19.0,18.0,-100.00,East,100,1.0,1.0,96,-99.99,,,-99.99,,2013-01-26 04:02:00,
2013-01-25 23:12:00,19.0,18.0,-100.00,East,95,1.0,1.0,96,-99.99,,,-99.99,,2013-01-26 04:12:00,
2013-01-25 23:21:00,19.0,18.0,-100.00,ESE,115,0.0,1.0,96,-99.99,,,-99.99,,2013-01-26 04:21:00,
2013-01-25 23:32:00,19.0,18.0,-100.00,East,90,1.0,1.0,96,-99.99,,,-99.99,,2013-01-26 04:32:00,
2013-01-25 23:42:00,19.0,18.0,-100.00,East,85,0.0,1.0,96,-99.99,,,-99.99,,2013-01-26 04:42:00,
2013-01-25 23:52:00,19.0,18.0,-100.00,ESE,110,0.0,1.0,96,-99.99,,,-99.99,,2013-01-26 04:52:00,